Find Starlink 2555

NORAD ID: 48291 Int'l Des: 2021-036 Owner: SPXS Country: US Constellation: starlink operational
LEOCIRCULAR

当前视图

正在加载3D地球...

About Starlink 2555

Starlink 2555 (NORAD 48291) is a starlink constellation satellite (v1.0) launched Apr 29, 2021 by SPXS of US. It operates in LEO, CIRCULAR orbit with a mass of 260.00 kg.

即将过境

Passes for default location (London). Set your location on the main map for personalized predictions.

高度历史

Loading altitude history...

两行轨道根数

1 48291U 21036R 26263.25692410 .00001328 00000-0 54536-4 0 9995
2 48291 53.1592 252.3379 0001240 83.0313 277.0829 15.31700803298188
Epoch: Sep 20, 2026 • Age: 25 hours

当前状态

高度 476.4 km
远地点 / 近地点 N/A
速度 7.63 km/s
星下点 53.27°N, 140.12°W
发射日期 Apr 29, 2021
运行时间 5.3 years
类型 internet

技术详情

分类 Payload
质量 260.00 kg
干质量 248.00 kg
长度 0.20 m
跨度 9.00 m
形状 ? Box + pan
制造商 SPXS
平台类型 Starlink
阶段状态 In Orbit
所有者/国家 SPXS/US

Most Searched